User: anonymous   Login
Location: Handeloh
(53.2500°N, 9.8330°E)
Time: 05:10:56
(UTC+01:00)
Language:

A-11 Canister half - Orbit

View from above orbital plane
View from above orbital plane
View from above satellite
View from above satellite

Ground track
Ground track

The orbit data is extracted from the following two-line orbital elements,

1 00053U 60009E   21021.47502867 -.00000090  00000-0 -45420-4 0  9998
2 00053  47.2776 306.6490 0100413   5.1265 355.0530 12.17252452695124
Epoch (UTC): 21 January 2021 11:24:02
Eccentricity: 0.0100413
inclination: 47.2776°
perigee height: 1524 km
apogee height: 1684 km
right ascension of ascending node: 306.6490°
argument of perigee: 5.1265°
revolutions per day: 12.17252452
mean anomaly at epoch: 355.0530°
orbit number at epoch: 69512

The dashed part of the orbit path shows where the satellite is in the earth's shadow,  

DLR